Vorticity
nan nan nan nan nan nan nan nan nan nan nan nan nan nan nan nan nan nan nan nan nan nan nan nan nan nan nan nan nan nan nan nan nan nan nan nan nan nan nan nan nan nan nan nan
nan 9 10 10 9 8 5 6 8 8 13 14 7 5 8 11 9 9 12 12 10 10 7 8 11 11 8 6 7 9 7 7 5 5 7 8 11 9 9 10 10 10 8 nan
nan 5 11 9 7 12 9 8 10 7 8 9 5 2 9 8 6 7 11 13 13 10 6 5 11 12 11 10 9 8 9 8 7 8 5 4 8 9 9 9 10 10 10 nan
nan 8 8 8 11 7 6 11 7 9 11 8 6 11 5 9 5 5 5 9 11 11 10 7 12 9 10 13 12 11 14 12 12 8 7 6 6 7 8 9 9 9 11 nan
nan 8 7 9 14 9 10 9 9 12 10 6 6 16 7 9 11 8 9 6 7 11 13 13 11 9 14 16 12 9 11 13 12 8 7 7 7 7 9 10 9 8 9 nan
nan 7 13 10 11 8 10 8 7 10 7 4 10 9 11 11 6 7 10 9 7 8 15 19 10 9 11 15 13 9 4 2 6 8 9 7 8 7 6 7 8 9 8 nan
nan 12 11 13 7 7 6 8 8 5 12 7 7 11 13 10 8 4 4 8 11 9 14 14 8 7 8 8 7 9 8 8 -0 0 8 13 9 9 6 6 8 9 8 nan
nan 9 14 10 12 8 7 10 8 10 7 9 8 7 13 9 5 8 13 11 7 6 9 10 10 8 8 9 6 6 7 10 11 11 8 11 9 6 9 9 8 8 9 nan
nan 6 8 10 13 10 8 10 10 6 9 12 8 6 11 11 8 9 12 19 10 7 10 16 14 10 9 8 7 8 9 9 16 7 9 12 11 10 9 8 8 9 8 nan
nan 10 8 11 8 9 16 8 6 10 13 7 10 12 11 5 9 13 11 10 10 9 10 15 17 11 9 9 9 7 8 9 8 9 9 10 8 8 10 10 9 9 9 nan
nan 7 8 9 10 8 7 9 12 14 9 10 9 10 12 7 9 8 5 6 8 11 13 13 14 14 11 9 9 9 9 8 6 9 7 8 9 9 9 8 9 9 9 nan
nan 7 13 7 7 8 11 11 10 9 8 8 11 7 12 12 11 7 3 7 11 13 12 12 13 14 9 8 8 9 8 9 8 10 12 10 8 5 5 7 9 13 10 nan
nan 4 8 6 9 13 11 9 10 8 14 11 4 6 7 13 12 4 6 9 12 12 11 11 12 13 13 11 9 9 9 9 12 8 6 7 7 7 9 10 12 13 11 nan
nan 14 12 10 6 6 5 9 8 7 8 13 4 7 9 10 8 5 8 11 14 12 9 9 8 11 14 12 12 12 12 11 8 9 10 10 8 8 7 13 17 12 10 nan
nan 9 9 9 11 10 7 9 13 9 8 6 10 10 8 14 12 8 10 11 9 9 8 9 9 9 11 15 14 13 13 13 13 12 10 10 11 10 10 14 15 12 12 nan
nan 13 10 8 11 9 10 10 11 11 11 7 10 11 11 14 15 13 10 8 8 8 9 10 9 10 10 11 13 13 12 15 16 15 16 13 13 14 17 15 14 13 11 nan
nan 13 8 8 8 9 12 13 10 11 8 12 12 12 12 12 11 11 9 9 9 9 9 8 8 8 9 9 8 8 12 13 14 12 10 11 12 11 13 17 16 14 13 nan
nan 8 11 12 8 11 10 10 13 8 4 11 15 12 12 9 7 8 9 8 7 8 8 6 8 7 7 9 9 8 9 9 8 8 8 8 10 11 13 14 10 8 11 nan
nan 11 11 13 7 6 12 15 13 8 7 12 10 9 9 7 6 7 11 9 7 7 8 7 7 8 8 8 8 9 8 9 8 8 8 8 10 11 10 9 10 10 11 nan
nan 11 12 11 12 9 6 11 12 10 11 15 10 9 7 6 8 11 9 6 8 9 8 9 9 7 8 9 8 6 6 6 8 8 7 8 9 9 10 10 10 11 8 nan
nan 14 11 9 8 9 16 12 10 8 14 12 12 11 8 7 8 10 11 8 9 8 9 9 9 9 8 8 8 7 8 10 11 8 7 8 7 8 9 11 12 9 6 nan
nan 9 8 9 10 10 10 13 11 4 13 13 12 12 9 7 10 11 7 6 9 12 14 13 11 10 10 11 10 8 9 13 11 10 9 8 7 8 8 9 12 12 10 nan
nan 12 12 11 5 8 9 11 12 15 11 11 10 10 12 10 9 9 10 10 10 8 9 11 10 10 12 13 11 11 8 8 10 11 10 11 10 8 9 11 10 13 13 nan
nan 12 11 8 9 11 12 13 13 13 12 11 10 12 11 9 8 8 10 11 9 8 10 9 10 11 10 10 13 12 9 10 11 10 10 10 10 10 10 10 10 11 11 nan
nan 9 9 5 9 11 12 12 10 10 10 10 10 11 10 9 10 12 10 11 11 10 11 10 9 10 9 8 9 11 12 12 12 10 10 11 11 11 12 11 9 9 7 nan
nan nan nan nan nan nan nan nan nan nan nan nan nan nan nan nan nan nan nan nan nan nan nan nan nan nan nan nan nan nan nan nan nan nan nan nan nan nan nan nan nan nan nan nan
CAPE
0 0 0 0 0 0 0 0 0 0 0 0 0 0 52 135 92 71 0 10 222 407 180 326 385 371 269 293 263 185 235 295 364 233 249 238 383 239 238 346 315 348 403 373
0 0 0 0 0 0 0 0 0 0 0 0 0 0 0 48 59 0 0 183 641 421 36 319 371 320 322 246 285 207 224 214 326 376 358 313 202 220 283 379 523 395 201 565
0 0 0 0 0 0 0 0 0 0 0 0 0 0 0 0 0 0 1 252 602 716 307 155 223 221 289 299 262 275 247 249 350 319 274 147 242 284 294 263 322 554 471 259
0 0 0 0 0 0 0 0 0 0 0 0 0 0 0 0 0 6 26 50 220 603 482 356 203 18 66 347 381 391 294 226 202 193 383 497 455 579 417 327 281 320 660 555
0 0 0 0 0 0 0 0 0 0 0 0 0 0 0 0 0 0 3 27 12 25 256 312 212 28 379 344 460 323 203 236 230 313 223 271 269 238 143 154 284 283 385 467
0 0 0 0 0 0 0 0 0 0 0 0 0 0 0 0 0 2 1 2 14 55 80 36 482 683 669 504 520 401 220 81 6 172 290 192 240 199 228 160 164 147 272 467
0 0 0 0 0 0 0 0 0 0 0 0 0 0 0 0 20 18 11 25 92 141 79 355 445 570 361 404 408 251 145 86 163 54 122 193 167 119 208 230 199 143 157 280
0 0 0 0 0 0 0 0 0 0 0 0 0 0 0 0 16 16 21 51 149 254 182 117 280 522 266 105 90 64 1 9 68 21 69 188 266 311 266 235 194 198 184 194
0 0 0 0 0 0 0 0 0 0 0 0 0 0 0 3 43 2 4 0 92 93 216 219 197 266 374 0 0 0 3 7 38 48 117 108 258 254 308 240 196 177 133 139
0 0 0 0 0 0 0 0 0 0 0 0 0 0 0 1 32 0 0 0 0 0 0 0 206 144 160 44 0 0 30 78 69 43 6 107 120 322 329 348 258 191 195 102
0 0 0 0 0 0 0 0 0 0 0 0 0 0 0 0 0 4 0 0 0 0 3 63 139 85 0 16 31 13 9 4 38 81 44 23 52 106 478 498 266 273 192 159
0 0 0 0 0 0 0 0 0 0 0 0 0 0 0 0 0 2 0 0 0 633 354 267 228 147 94 42 3 0 0 0 0 52 89 103 74 39 110 399 605 391 237 202
0 0 0 0 0 0 0 0 0 0 0 0 0 0 0 0 0 0 0 0 334 1083 1212 960 441 261 214 91 46 10 0 0 0 30 46 100 101 128 115 150 571 388 351 267
0 0 0 0 0 0 0 0 0 0 0 0 0 0 0 5 0 0 0 142 1097 1158 1262 990 772 907 625 147 101 72 69 46 18 0 4 18 50 457 805 1023 988 618 380 398
0 0 0 0 0 0 0 0 0 0 0 0 0 0 0 0 0 0 22 935 942 811 637 598 680 594 716 1266 599 219 234 238 150 101 91 88 75 202 524 1014 797 753 694 737
0 0 0 0 0 0 0 0 0 2 0 0 0 0 0 0 2 2 636 786 583 328 374 568 704 732 727 771 976 1011 977 1084 838 227 168 475 762 871 766 749 893 747 727 583
0 0 0 0 0 0 0 0 56 376 226 20 19 0 264 360 542 578 660 244 100 362 431 434 423 445 490 913 947 836 894 1169 797 761 784 728 933 851 764 708 487 434 591 581
0 0 0 0 0 0 0 38 17 318 241 117 10 278 201 85 68 69 101 51 9 9 34 12 78 358 526 698 882 543 322 388 690 518 331 344 549 582 623 250 94 122 116 283
0 0 0 0 0 0 9 148 0 229 227 193 213 464 0 126 17 28 0 0 0 0 0 0 0 0 0 113 654 282 4 0 2 36 1 10 264 380 633 263 45 138 187 2
0 0 0 0 0 0 0 0 0 0 82 111 318 367 136 82 91 55 70 33 0 0 0 0 0 0 0 0 0 0 0 0 0 0 0 0 0 37 382 688 312 58 1 0
0 0 0 0 0 0 0 0 0 1 0 147 529 323 177 239 125 40 147 83 7 7 0 0 0 0 0 0 0 0 0 0 0 0 0 0 0 0 16 264 573 20 0 0
0 0 0 0 0 0 0 0 12 0 0 127 371 326 339 155 1 69 75 2 0 0 0 0 0 0 0 0 0 0 0 0 0 0 0 0 0 0 9 61 14 420 25 0
0 0 0 0 0 0 0 0 0 0 0 0 7 0 0 0 0 0 0 0 0 0 0 0 0 0 0 0 0 0 0 0 0 0 0 0 0 0 0 0 0 219 75 0
0 0 0 0 0 0 0 0 0 0 0 0 0 0 0 0 0 0 0 0 0 0 0 0 0 0 0 0 0 0 0 0 0 0 0 0 0 0 0 0 0 2 169 86
0 0 0 0 0 0 0 0 0 0 0 0 0 0 0 0 0 0 0 0 0 0 0 0 0 0 0 0 0 0 0 0 0 0 0 0 0 0 0 0 0 0 0 86
0 0 0 0 0 0 0 0 0 0 0 0 0 0 0 0 0 0 0 0 0 0 0 0 0 0 0 0 0 0 0 0 0 0 0 0 0 0 0 0 0 0 0 1